This is the latest recevied weather packets stored in our database for station/object N6GPM. If no packets are shown the sender has not sent any weather packets the latest 10 day(s).
| Time | Temp. | Humidity | Pressure | Rain* | Wind** | Luminosity | Snow |
|---|---|---|---|---|---|---|---|
| 1787829084 | 28.33° C | 42% | 1016.4 hPa | 0 mm | - | 0 W/m² | - |
| 1787828779 | 28.33° C | 42% | 1016.4 hPa | 0 mm | - | 0 W/m² | - |
| 1787828475 | 28.33° C | 42% | 1016.2 hPa | 0 mm | - | 0 W/m² | - |
| 1787828174 | 28.89° C | 42% | 1016.6 hPa | 0 mm | - | 0 W/m² | - |
| 1787827873 | 28.89° C | 42% | 1016.3 hPa | 0 mm | - | 0 W/m² | - |
| 1787827568 | 28.89° C | 42% | 1016.1 hPa | 0 mm | - | 0 W/m² | - |
| 1787827263 | 28.89° C | 42% | 1016.3 hPa | 0 mm | - | 0 W/m² | - |
| 1787826961 | 28.89° C | 42% | 1016.3 hPa | 0 mm | - | 0 W/m² | - |
| 1787826657 | 28.89° C | 41% | 1016.3 hPa | 0 mm | - | 0 W/m² | - |
| 1787826352 | 28.89° C | 41% | 1016.3 hPa | 0 mm | - | 0 W/m² | - |
| 1787826049 | 28.89° C | 41% | 1016.4 hPa | 0 mm | - | 0 W/m² | - |
| 1787825747 | 28.89° C | 41% | 1016.3 hPa | 0 mm | - | 0 W/m² | - |
| 1787825446 | 28.89° C | 41% | 1016.5 hPa | 0 mm | - | 0 W/m² | - |
| 1787825145 | 28.33° C | 40% | 1016.4 hPa | 0 mm | - | 0 W/m² | - |
| 1787824843 | 28.33° C | 41% | 1016.4 hPa | 0 mm | - | 0 W/m² | - |
| 1787824542 | 28.33° C | 40% | 1016.3 hPa | 0 mm | - | 0 W/m² | - |
| 1787824236 | 28.89° C | 40% | 1016.4 hPa | 0 mm | - | 0 W/m² | - |
| 1787823933 | 28.89° C | 40% | 1016.6 hPa | 0 mm | - | 0 W/m² | - |
| 1787823628 | 29.44° C | 39% | 1016.4 hPa | 0 mm | - | 0 W/m² | - |
| 1787823322 | 29.44° C | 38% | 1016.5 hPa | 0 mm | - | 0 W/m² | - |
| 1787823021 | 30° C | 37% | 1016.4 hPa | 0 mm | - | 0 W/m² | - |
| 1787822715 | 30° C | 37% | 1016.5 hPa | 0 mm | - | 0 W/m² | - |
| 1787822410 | 29.44° C | 37% | 1016.6 hPa | 0 mm | - | 0 W/m² | - |
| 1787822106 | 29.44° C | 38% | 1016.8 hPa | 0 mm | - | 0 W/m² | - |
| 1787821804 | 29.44° C | 38% | 1016.7 hPa | 0 mm | - | 0 W/m² | - |
* Rain latest hour (hover to see other rain measurements)
** Current wind speed in m/s (hover to see current wind gust speed)